DW7002 Weather Reports


Display with metric or nautical units.
time (UTC)temp
F
wind
direction
speed
MPH
gust
MPH
rain 1hr
in
rain 24hr
in
rain mn
in
humidity
%
barometer
mb
20260502140120 53 47 1.0 4.0 0.00 0.00 0.00 73 1015.3
20260502130118 53 79 0.0 0.0 0.00 0.00 0.00 79 1015.3
20260502123122 53 128 0.0 0.0 0.00 0.00 0.00 81 1014.6
20260502122134 53 156 0.0 0.0 0.00 0.00 0.00 81 1014.7
20260502121132 53 156 0.0 0.0 0.00 0.00 0.00 82 1014.8
20260502120124 53 157 0.0 0.0 0.00 0.00 0.00 83 1014.8
20260502115134 53 112 0.0 0.0 0.00 0.00 0.00 84 1014.5
20260502114126 53 115 0.0 0.0 0.00 0.00 0.00 84 1014.5
20260502113123 53 115 0.0 0.0 0.00 0.00 0.00 85 1014.5
20260502112136 53 115 0.0 0.0 0.00 0.00 0.00 84 1014.2
20260502111130 53 115 0.0 0.0 0.00 0.00 0.00 84 1014.3
20260502110124 53 115 0.0 0.0 0.00 0.00 0.00 84 1014.2
20260502105155 53 115 0.0 0.0 0.00 0.00 0.00 84 1014.0
20260502104126 53 115 0.0 0.0 0.00 0.00 0.00 85 1014.2
20260502103117 53 169 0.0 0.0 0.00 0.00 0.00 86 1014.2
20260502102133 52 169 0.0 0.0 0.00 0.00 0.00 88 1014.2
20260502101125 52 169 0.0 0.0 0.00 0.00 0.00 89 1014.5
20260502100117 52 169 0.0 0.0 0.00 0.00 0.00 90 1014.5
20260502091145 53 169 0.0 0.0 0.00 0.00 0.00 89 1014.7
20260502090119 52 169 0.0 0.0 0.00 0.00 0.00 89 1014.3
20260502071120 51 169 0.0 0.0 0.00 0.00 0.00 91 1013.5
20260502070131 51 169 0.0 0.0 0.00 0.00 0.00 90 1013.7
20260502065140 51 169 0.0 0.0 0.00 0.00 0.00 91 1013.7
20260502064117 51 169 0.0 0.0 0.00 0.00 0.00 90 1013.8
20260502063130 51 169 0.0 0.0 0.00 0.00 0.00 90 1014.0
20260502062124 51 169 0.0 0.0 0.00 0.00 0.00 90 1014.0
20260502061116 51 169 0.0 0.0 0.00 0.00 0.00 89 1013.7
20260502060130 51 169 0.0 0.0 0.00 0.00 0.00 89 1013.7
20260502055120 51 169 0.0 0.0 0.00 0.00 0.00 89 1013.7
20260502054133 51 169 0.0 0.0 0.00 0.00 0.00 89 1013.7
20260502053126 51 169 0.0 0.0 0.00 0.00 0.00 89 1013.7
20260502052123 51 169 0.0 0.0 0.00 0.00 0.00 89 1013.9
20260502051117 51 169 0.0 0.0 0.00 0.00 0.00 89 1014.0
20260502050129 51 169 0.0 0.0 0.00 0.00 0.00 89 1014.1
20260502045122 51 169 0.0 0.0 0.00 0.00 0.00 88 1014.2
20260502044115 51 169 0.0 0.0 0.00 0.00 0.00 88 1014.1
20260502043126 51 169 0.0 0.0 0.00 0.00 0.00 88 1014.2
20260502042119 51 169 0.0 0.0 0.00 0.00 0.00 87 1014.2
20260502041116 51 169 0.0 0.0 0.00 0.00 0.00 87 1014.2
20260502040127 52 169 0.0 0.0 0.00 0.00 0.00 86 1014.4
20260502035115 52 169 0.0 0.0 0.00 0.00 0.00 86 1014.4
20260502034131 52 169 0.0 0.0 0.00 0.00 0.00 86 1014.4
20260502033123 52 169 0.0 0.0 0.00 0.00 0.00 86 1014.5
20260502032116 52 169 0.0 0.0 0.00 0.00 0.00 86 1014.5
20260502031129 52 169 0.0 0.0 0.00 0.00 0.00 85 1014.7
20260502030124 52 169 0.0 0.0 0.00 0.00 0.00 85 1014.5
20260502025134 52 169 0.0 0.0 0.00 0.00 0.00 85 1014.5
20260502024125 52 169 0.0 0.0 0.00 0.00 0.00 84 1014.5
20260502023123 53 169 0.0 0.0 0.00 0.00 0.00 84 1014.6
20260502022133 53 169 0.0 0.0 0.00 0.00 0.00 83 1014.5
20260502021127 53 169 0.0 0.0 0.00 0.00 0.00 82 1014.6
20260502020121 54 169 0.0 0.0 0.00 0.00 0.00 82 1014.7
20260502015116 54 169 0.0 0.0 0.00 0.00 0.00 82 1014.7
20260502014149 54 169 0.0 0.0 0.00 0.00 0.00 81 1014.7
20260502013121 55 169 0.0 0.0 0.00 0.00 0.00 80 1014.5
20260502012134 55 169 0.0 0.0 0.00 0.00 0.00 80 1014.5
20260502011130 55 169 0.0 0.0 0.00 0.00 0.00 79 1014.5
20260502010119 56 169 0.0 2.0 0.00 0.00 0.00 79 1014.3
20260502005130 56 169 0.0 2.0 0.00 0.00 0.00 79 1014.1
20260502004126 56 168 1.0 5.0 0.00 0.00 0.00 79 1014.0
20260502003118 56 223 1.0 4.0 0.00 0.00 0.00 78 1013.8
20260502002132 57 178 1.0 6.0 0.00 0.00 0.00 78 1013.8
20260502001124 57 170 1.0 4.0 0.00 0.00 0.00 77 1013.6
20260502000118 58 147 0.0 4.0 0.00 0.00 0.00 76 1013.4
20260501235128 58 105 1.0 4.0 0.00 0.00 0.00 74 1013.4
20260501234120 59 158 1.0 3.0 0.00 0.00 0.00 73 1013.5
20260501233116 59 187 1.0 3.0 0.00 0.00 0.00 72 1013.7
20260501232130 60 179 1.0 4.0 0.00 0.00 0.00 70 1013.3
20260501231123 60 183 2.0 4.0 0.00 0.00 0.00 69 1013.2
20260501230137 60 152 1.0 4.0 0.00 0.00 0.00 69 1013.4
20260501225129 61 192 3.0 6.0 0.00 0.00 0.00 66 1013.4
20260501224122 61 132 1.0 5.0 0.00 0.00 0.00 66 1013.5
20260501223135 62 152 2.0 5.0 0.00 0.00 0.00 65 1013.4
20260501222128 62 132 2.0 6.0 0.00 0.00 0.00 63 1013.4
20260501221126 63 145 4.0 9.0 0.00 0.00 0.00 62 1013.4
20260501220117 63 317 2.0 5.0 0.00 0.00 0.00 61 1013.4
20260501215127 63 178 3.0 5.0 0.00 0.00 0.00 59 1013.8
20260501214124 63 259 1.0 4.0 0.00 0.00 0.00 60 1013.7
20260501213117 64 90 3.0 6.0 0.00 0.00 0.00 60 1013.7
20260501212130 64 175 1.0 5.0 0.00 0.00 0.00 59 1013.7
20260501211123 64 124 1.0 7.0 0.00 0.00 0.00 60 1013.6
20260501210119 64 171 3.0 6.0 0.00 0.00 0.00 57 1013.7
20260501205149 64 174 4.0 7.0 0.00 0.00 0.00 56 1013.8
20260501204120 64 104 2.0 7.0 0.00 0.00 0.00 58 1013.9
20260501203154 65 112 2.0 5.0 0.00 0.00 0.00 55 1014.0
20260501202128 65 153 3.0 6.0 0.00 0.00 0.00 54 1014.0
20260501201141 65 245 2.0 5.0 0.00 0.00 0.00 55 1014.1
20260501200132 65 266 1.0 5.0 0.00 0.00 0.00 54 1014.2
20260501195121 65 139 2.0 6.0 0.00 0.00 0.00 53 1014.4
20260501194119 65 175 2.0 6.0 0.00 0.00 0.00 52 1014.7
20260501193134 66 269 2.0 6.0 0.00 0.00 0.00 52 1014.7
20260501192127 66 150 3.0 7.0 0.00 0.00 0.00 52 1014.8
20260501191140 66 140 4.0 8.0 0.00 0.00 0.00 52 1015.0
20260501190115 66 192 0.0 6.0 0.00 0.00 0.00 52 1015.1
20260501185146 65 175 1.0 4.0 0.00 0.00 0.00 53 1015.3
20260501184118 66 254 2.0 6.0 0.00 0.00 0.00 53 1015.2
20260501183130 66 142 2.0 5.0 0.00 0.00 0.00 50 1015.4
20260501182126 65 136 2.0 7.0 0.00 0.00 0.00 51 1015.7
20260501181119 65 284 2.0 6.0 0.00 0.00 0.00 49 1015.7
20260501180130 65 267 2.0 5.0 0.00 0.00 0.00 51 1015.8
20260501175124 66 266 2.0 6.0 0.00 0.00 0.00 51 1015.9
20260501174115 65 113 1.0 7.0 0.00 0.00 0.00 51 1015.9
20260501173147 65 190 1.0 4.0 0.00 0.00 0.00 49 1016.1
20260501172141 64 39 3.0 6.0 0.00 0.00 0.00 51 1016.1
20260501171118 64 287 3.0 5.0 0.00 0.00 0.00 51 1016.3
20260501170128 64 165 2.0 6.0 0.00 0.00 0.00 51 1016.4
20260501165118 63 175 2.0 6.0 0.00 0.00 0.00 50 1016.5
20260501164132 63 98 1.0 6.0 0.00 0.00 0.00 51 1016.7
20260501163129 63 152 4.0 6.0 0.00 0.00 0.00 53 1016.8
20260501162123 63 132 2.0 5.0 0.00 0.00 0.00 53 1016.8
20260501161115 63 115 1.0 4.0 0.00 0.00 0.00 54 1017.0
20260501160129 61 79 1.0 4.0 0.00 0.00 0.00 58 1017.1
20260501155120 60 298 1.0 7.0 0.00 0.00 0.00 58 1017.4
20260501154153 60 170 2.0 5.0 0.00 0.00 0.00 59 1017.5
20260501153125 59 136 1.0 4.0 0.00 0.00 0.00 61 1017.5
20260501152121 58 103 1.0 5.0 0.00 0.00 0.00 62 1017.5
20260501151114 58 112 1.0 4.0 0.00 0.00 0.00 60 1017.6
20260501150127 58 177 2.0 5.0 0.00 0.00 0.00 58 1017.7
20260501144134 57 66 3.0 5.0 0.00 0.00 0.00 61 1017.5
20260501143128 57 98 2.0 6.0 0.00 0.00 0.00 61 1017.5
20260501142121 57 75 3.0 5.0 0.00 0.00 0.00 61 1017.5